Weather History for KCIU - September, 2013

Change the Weather History Date:

Monday, September 9, 2013

  Actual Average (KANJ) Record (KANJ)
Temperature  
Mean Temperature 58 °F 60 °F  
Max Temperature 64 °F 69 °F 91 °F (1897)
Min Temperature 51 °F 50 °F 29 °F (1981)
Degree Days  
Heating Degree Days 8 6  
Month to date heating degree days 48  
Since 1 July heating degree days 195  
Cooling Degree Days 0 1  
Month to date cooling degree days 9  
Year to date cooling degree days 187  
Growing Degree Days 8 (Base 50)    
Moisture  
Dew Point 56 °F    
Average Humidity 90    
Maximum Humidity 100    
Minimum Humidity 77    
Precipitation  
Precipitation 0.00 in 0.13 in 2.56 in (2013)
Month to date precipitation 1.07  
Year to date precipitation 20.24  
Sea Level Pressure  
Sea Level Pressure 29.93 in    
Wind  
Wind Speed 7 mph (SE)    
Max Wind Speed 15 mph    
Max Gust Speed -    
Visibility 10 miles    
Events      
T = Trace of Precipitation, MM = Missing Value Source: NWS Daily Summary

Daily Weather History Graph

Daily Weather History Graph

Search for Another Location

Airport or City:

Trip Planner

Search our weather history database for the weather conditions in past years. The results will help you decide how hot, cold, wet, or windy it might be!

Date:

Astronomy

Sep. 09, 2013 Rise Set
Actual Time 7:08 AM EDT 8:00 PM EDT
Civil Twilight 6:38 AM EDT 8:31 PM EDT
Nautical Twilight 6:01 AM EDT 9:07 PM EDT
Astronomical Twilight 5:23 AM EDT 9:45 PM EDT
Moon 11:46 AM EDT (9/9) 9:58 PM EDT (9/9)
Length of Visible Light 13h 52m
Length of Day
12h 51m
Waxing Crescent, 19% of the Moon is Illuminated
Sep 9
Waxing Crescent
Sep 12
First Quarter
Sep 19
Full
Sep 26
Last Quarter
Oct 4
New

Hourly Weather History & Observations

Time (EDT) Temp. Dew Point Humidity Pressure Visibility Wind Dir Wind Speed Gust Speed Precip Events Conditions
12:15 AM 53.6 °F 50.0 °F 88% 30.06 in 10.0 mi South 9.2 mph - N/A   Clear
12:35 AM 53.6 °F 51.8 °F 94% 30.06 in 10.0 mi SSE 8.1 mph - N/A   Clear
12:55 AM 53.6 °F 51.8 °F 94% 30.06 in 10.0 mi SE 6.9 mph - N/A   Clear
1:15 AM 51.8 °F 50.0 °F 94% 30.06 in 10.0 mi SE 8.1 mph - N/A   Clear
1:35 AM 53.6 °F 51.8 °F 94% 30.06 in 10.0 mi SE 10.4 mph - N/A   Clear
1:55 AM 51.8 °F 50.0 °F 94% 30.05 in 10.0 mi SSE 8.1 mph - N/A   Clear
2:15 AM 51.8 °F 50.0 °F 94% 30.05 in 10.0 mi SSE 8.1 mph - N/A   Clear
2:35 AM 51.8 °F 50.0 °F 94% 30.05 in 10.0 mi SSE 6.9 mph - N/A   Clear
2:55 AM 51.8 °F 50.0 °F 94% 30.04 in 10.0 mi SE 8.1 mph - N/A   Clear
3:15 AM 51.8 °F 50.0 °F 94% 30.04 in 10.0 mi SSE 5.8 mph - N/A   Clear
3:35 AM 51.8 °F 48.2 °F 88% 30.04 in 10.0 mi SSE 3.5 mph - N/A   Clear
3:55 AM 51.8 °F 48.2 °F 88% 30.04 in 10.0 mi SSE 5.8 mph - N/A   Clear
4:15 AM 51.8 °F 50.0 °F 94% 30.02 in 10.0 mi SSE 8.1 mph - N/A   Clear
4:35 AM 53.6 °F 50.0 °F 88% 30.02 in 10.0 mi SSE 8.1 mph - N/A   Clear
4:55 AM 53.6 °F 50.0 °F 88% 30.02 in 10.0 mi SSE 5.8 mph - N/A   Clear
5:15 AM 53.6 °F 50.0 °F 88% 30.01 in 10.0 mi SSE 8.1 mph - N/A   Clear
5:35 AM 51.8 °F 50.0 °F 94% 30.00 in 10.0 mi SE 8.1 mph - N/A   Clear
5:55 AM 51.8 °F 50.0 °F 94% 30.01 in 10.0 mi SSE 5.8 mph - N/A   Clear
6:15 AM 53.6 °F 50.0 °F 88% 30.01 in 10.0 mi SSE 5.8 mph - N/A   Clear
6:35 AM 51.8 °F 51.8 °F 100% 30.00 in 10.0 mi SSE 6.9 mph - N/A   Clear
6:55 AM 53.6 °F 51.8 °F 94% 30.00 in 10.0 mi SSE 5.8 mph - N/A   Clear
7:15 AM 53.6 °F 51.8 °F 94% 29.99 in 10.0 mi SSE 8.1 mph - N/A   Clear
7:35 AM 53.6 °F 51.8 °F 94% 29.98 in 10.0 mi SSE 6.9 mph - N/A   Clear
7:55 AM 53.6 °F 51.8 °F 94% 29.98 in 10.0 mi SE 6.9 mph - N/A   Clear
8:15 AM 53.6 °F 53.6 °F 100% 29.98 in 10.0 mi SE 5.8 mph - N/A   Scattered Clouds
8:35 AM 55.4 °F 53.6 °F 94% 29.98 in 10.0 mi SE 6.9 mph - N/A   Overcast
8:55 AM 55.4 °F 53.6 °F 94% 29.99 in 10.0 mi SE 6.9 mph - N/A   Overcast
9:15 AM 55.4 °F 53.6 °F 94% 29.98 in 10.0 mi SSE 8.1 mph - N/A   Overcast
9:35 AM 57.2 °F 53.6 °F 88% 29.99 in 10.0 mi SSE 6.9 mph - N/A   Overcast
9:55 AM 57.2 °F 53.6 °F 88% 29.99 in 10.0 mi SSE 4.6 mph - N/A   Overcast
10:15 AM 57.2 °F 53.6 °F 88% 29.98 in 7.0 mi South 6.9 mph - N/A   Overcast
10:35 AM 57.2 °F 55.4 °F 94% 29.97 in 10.0 mi SSE 5.8 mph - N/A   Overcast
10:55 AM 60.8 °F 55.4 °F 82% 29.96 in 10.0 mi SSE 5.8 mph - N/A   Overcast
11:15 AM 60.8 °F 55.4 °F 82% 29.96 in 10.0 mi South 5.8 mph - N/A   Overcast
11:35 AM 62.6 °F 55.4 °F 77% 29.97 in 10.0 mi South 5.8 mph - N/A   Overcast
11:55 AM 62.6 °F 55.4 °F 77% 29.97 in 10.0 mi South 3.5 mph - N/A   Overcast
12:15 PM 62.6 °F 55.4 °F 77% 29.96 in 10.0 mi South 6.9 mph - N/A   Overcast
12:35 PM 62.6 °F 55.4 °F 77% 29.96 in 10.0 mi SSE 4.6 mph - N/A   Overcast
12:55 PM 62.6 °F 57.2 °F 82% 29.97 in 10.0 mi South 3.5 mph - N/A   Overcast
1:15 PM 62.6 °F 55.4 °F 77% 29.96 in 10.0 mi ESE 3.5 mph - N/A   Overcast
1:35 PM 62.6 °F 57.2 °F 82% 29.95 in 10.0 mi ESE 4.6 mph - N/A   Overcast
1:55 PM 62.6 °F 57.2 °F 82% 29.95 in 10.0 mi ESE 4.6 mph - N/A   Overcast
2:15 PM 60.8 °F 57.2 °F 88% 29.94 in 10.0 mi SE 5.8 mph - N/A   Overcast
2:35 PM 62.6 °F 57.2 °F 82% 29.93 in 10.0 mi SE 5.8 mph - N/A   Overcast
2:55 PM 62.6 °F 57.2 °F 82% 29.91 in 10.0 mi ESE 6.9 mph - N/A   Overcast
3:15 PM 62.6 °F 57.2 °F 82% 29.87 in 10.0 mi ESE 11.5 mph - N/A   Overcast
3:35 PM 62.6 °F 57.2 °F 82% 29.89 in 10.0 mi SE 5.8 mph - N/A   Overcast
3:55 PM 62.6 °F 57.2 °F 82% 29.89 in 10.0 mi SE 6.9 mph - N/A   Overcast
4:15 PM 64.4 °F 59.0 °F 83% 29.88 in 10.0 mi SE 8.1 mph - N/A   Overcast
4:35 PM 64.4 °F 59.0 °F 83% 29.88 in 10.0 mi SE 5.8 mph - N/A   Overcast
4:55 PM 64.4 °F 60.8 °F 88% 29.84 in 10.0 mi ESE 9.2 mph - N/A   Overcast
5:15 PM 64.4 °F 60.8 °F 88% 29.81 in 10.0 mi SE 15.0 mph - N/A   Overcast
5:35 PM 64.4 °F 60.8 °F 88% 29.82 in 10.0 mi SSE 12.7 mph - N/A   Overcast
5:55 PM 64.4 °F 60.8 °F 88% 29.81 in 10.0 mi SSE 10.4 mph - N/A   Overcast
6:15 PM 64.4 °F 60.8 °F 88% 29.84 in 10.0 mi SE 3.5 mph - N/A   Overcast
6:35 PM 64.4 °F 60.8 °F 88% 29.84 in 10.0 mi Calm Calm - N/A   Overcast
6:55 PM 64.4 °F 60.8 °F 88% 29.84 in 10.0 mi Calm Calm - N/A   Overcast
7:15 PM 64.4 °F 60.8 °F 88% 29.84 in 10.0 mi NNE 4.6 mph - N/A   Overcast
7:35 PM 64.4 °F 60.8 °F 88% 29.82 in 10.0 mi ENE 4.6 mph - N/A   Overcast
7:55 PM 64.4 °F 60.8 °F 88% 29.81 in 10.0 mi East 5.8 mph - N/A   Overcast
8:15 PM 62.6 °F 60.8 °F 94% 29.82 in 10.0 mi ENE 5.8 mph - N/A   Overcast
8:35 PM 62.6 °F 60.8 °F 94% 29.82 in 10.0 mi East 6.9 mph - N/A   Overcast
8:55 PM 62.6 °F 60.8 °F 94% 29.83 in 10.0 mi ENE 6.9 mph - N/A   Overcast
9:15 PM 62.6 °F 60.8 °F 94% 29.82 in 10.0 mi East 8.1 mph - N/A   Overcast
9:35 PM 62.6 °F 60.8 °F 94% 29.82 in 10.0 mi East 9.2 mph - N/A   Overcast
9:55 PM 62.6 °F 60.8 °F 94% 29.80 in 10.0 mi ESE 8.1 mph - N/A   Overcast
10:15 PM 62.6 °F 62.6 °F 100% 29.78 in 10.0 mi ESE 11.5 mph - N/A   Overcast
10:35 PM 62.6 °F 62.6 °F 100% 29.76 in 10.0 mi SE 11.5 mph - N/A   Overcast
10:55 PM 62.6 °F 62.6 °F 100% 29.77 in 10.0 mi ESE 6.9 mph - N/A   Overcast
11:15 PM 62.6 °F 62.6 °F 100% 29.78 in 10.0 mi East 9.2 mph - N/A   Overcast
11:35 PM 62.6 °F 62.6 °F 100% 29.76 in 10.0 mi East 8.1 mph - N/A   Overcast
11:55 PM 62.6 °F 62.6 °F 100% 29.75 in 9.0 mi ENE 13.8 mph - N/A   Overcast